Location: La Brionne
(46.1728°N, 1.7849°E)
Time: 12:35:48
(UTC+00:00)

Cosmos 2219 Rocket - Pass Details

Date: 25 October 2021
Orbit: 826 x 848 km, 71.0° (Epoch: 01 December)

Event Time Altitude Azimuth Distance (km) Brightness Sun altitude
Rises 17:54:32 0° 157° (SSE) 3,353 5.1 -11.9°
Reaches altitude 10° 17:57:46 10° 138° (SE) 2,427 4.2 -12.5°
Enters shadow 18:01:04 17° 101° (E) 1,982 3.5 -13.0°
